This is the latest recevied weather packets stored in our database for station/object AB8Y-13. If no packets are shown the sender has not sent any weather packets the latest 10 day(s).
| Time | Temp. | Humidity | Pressure | Rain* | Wind** | Luminosity | Snow |
|---|---|---|---|---|---|---|---|
| 1777419158 | 15° C | 61% | 1012.6 hPa | 0 mm | - | 43 W/m² | - |
| 1777418852 | 15.56° C | 60% | 1012.7 hPa | 0 mm | - | 58 W/m² | - |
| 1777418549 | 15.56° C | 60% | 1012.7 hPa | 0 mm | - | 67 W/m² | - |
| 1777418246 | 15° C | 60% | 1012.7 hPa | 0 mm | - | 83 W/m² | - |
| 1777417941 | 15.56° C | 60% | 1012.6 hPa | 0 mm | - | 66 W/m² | - |
| 1777417638 | 15.56° C | 61% | 1012.4 hPa | 0 mm | - | 70 W/m² | - |
| 1777417332 | 15.56° C | 61% | 1012.3 hPa | 0 mm | - | 95 W/m² | - |
| 1777417030 | 15.56° C | 58% | 1012.3 hPa | 0 mm | - | 80 W/m² | - |
| 1777416725 | 15.56° C | 59% | 1012.2 hPa | 0 mm | - | 82 W/m² | - |
| 1777416421 | 15.56° C | 60% | 1012.3 hPa | 0 mm | - | 94 W/m² | - |
| 1777416116 | 16.11° C | 57% | 1012 hPa | 0 mm | - | 106 W/m² | - |
| 1777415816 | 16.67° C | 60% | 1011.9 hPa | 0 mm | - | 150 W/m² | - |
| 1777415513 | 16.67° C | 57% | 1011.8 hPa | 0 mm | - | 239 W/m² | - |
| 1777415208 | 16.67° C | 57% | 1011.8 hPa | 0 mm | - | 264 W/m² | - |
| 1777414904 | 17.22° C | 56% | 1011.7 hPa | 0 mm | - | 296 W/m² | - |
| 1777414602 | 16.67° C | 56% | 1011.8 hPa | 0 mm | - | 310 W/m² | - |
| 1777414298 | 17.22° C | 55% | 1011.7 hPa | 0 mm | - | 340 W/m² | - |
| 1777413993 | 16.67° C | 58% | 1011.5 hPa | 0 mm | - | 335 W/m² | - |
| 1777413688 | 16.67° C | 57% | 1011.3 hPa | 0 mm | - | 366 W/m² | - |
| 1777413384 | 16.67° C | 57% | 1011.4 hPa | 0 mm | - | 387 W/m² | - |
| 1777413081 | 16.11° C | 60% | 1011.3 hPa | 0 mm | - | 410 W/m² | - |
| 1777412775 | 15.56° C | 60% | 1011.7 hPa | 0 mm | - | 374 W/m² | - |
| 1777412475 | 16.11° C | 59% | 1011.5 hPa | 0 mm | - | 191 W/m² | - |
| 1777412172 | 16.11° C | 59% | 1011.6 hPa | 0 mm | - | 186 W/m² | - |
| 1777411869 | 16.11° C | 59% | 1011.6 hPa | 0 mm | - | 208 W/m² | - |
* Rain latest hour (hover to see other rain measurements)
** Current wind speed in m/s (hover to see current wind gust speed)